GW4545 Weather Reports


time (UTC)temp
C
wind
direction
speed
KPH
gust
KPH
rain 1hr
cm
rain 24hr
cm
rain mn
cm
humidity
%
barometer
mb
20260902021546 17 0 0.0 6.4 0.00 0.03 0.03 73 1012.1
20260902020100 17 232 1.6 11.3 0.00 0.03 0.03 75 1012.1
20260902014550 17 259 6.4 14.5 0.00 0.03 0.03 75 1012.1
20260902013057 17 251 4.8 11.3 0.00 0.03 0.03 76 1012.0
20260902011556 18 295 1.6 4.8 0.00 0.03 0.03 75 1011.9
20260902010055 18 0 1.6 6.4 0.00 0.03 0.03 75 1011.9
20260902004600 17 333 1.6 4.8 0.00 0.03 0.03 81 1011.9
20260902003057 17 352 0.0 3.2 0.00 0.03 0.03 83 1011.9
20260902001558 17 339 1.6 4.8 0.00 0.03 0.03 85 1011.9
20260902000050 17 312 1.6 4.8 0.00 0.03 0.03 85 1012.0
20260901234558 16 0 0.0 3.2 0.00 0.03 0.03 87 1012.1
20260901233101 16 0 0.0 4.8 0.00 0.03 0.03 89 1012.0
20260901231551 16 129 3.2 4.8 0.03 0.03 0.03 89 1012.1
20260901230059 16 303 0.0 6.4 0.03 0.03 0.03 88 1012.5
20260901224555 16 352 1.6 4.8 0.03 0.03 0.03 88 1012.4
20260901223059 16 360 1.6 4.8 0.03 0.03 0.03 87 1012.4
20260901221547 17 273 4.8 14.5 0.00 0.00 0.00 81 1012.4
20260901220113 18 238 4.8 14.5 0.00 0.00 0.00 72 1012.2
20260901214552 18 0 1.6 8.0 0.00 0.00 0.00 74 1012.1
20260901213104 17 176 0.0 11.3 0.00 0.00 0.00 76 1012.1
20260901211554 17 149 3.2 12.9 0.00 0.00 0.00 75 1012.1
20260901210050 17 0 1.6 8.0 0.00 0.00 0.00 75 1012.2
20260901204558 18 54 1.6 6.4 0.00 0.00 0.00 72 1012.2
20260901203055 18 0 1.6 6.4 0.00 0.00 0.00 72 1012.1
20260901201557 18 203 3.2 9.7 0.00 0.00 0.00 70 1012.2
20260901194604 18 76 1.6 9.7 0.00 0.00 0.00 73 1012.3
20260901193102 17 0 0.0 9.7 0.00 0.00 0.00 74 1012.4
20260901191548 17 215 1.6 4.8 0.00 0.00 0.00 74 1012.5
20260901190053 17 97 1.6 4.8 0.00 0.00 0.00 75 1012.8
20260901184557 17 87 0.0 9.7 0.00 0.00 0.00 75 1012.9
20260901183048 17 115 3.2 11.3 0.00 0.00 0.00 75 1012.9
20260901181556 17 0 1.6 12.9 0.00 0.00 0.00 74 1012.9
20260901180055 17 82 3.2 9.7 0.00 0.00 0.00 76 1012.9
20260901174552 17 87 3.2 14.5 0.00 0.00 0.00 76 1012.8
20260901173057 17 107 1.6 16.1 0.00 0.00 0.00 77 1012.8
20260901171557 16 273 1.6 9.7 0.00 0.00 0.00 77 1012.8
20260901170115 16 0 1.6 6.4 0.00 0.00 0.00 80 1012.6
20260901164552 15 0 0.0 4.8 0.00 0.00 0.00 84 1012.8
20260901163056 15 0 1.6 4.8 0.00 0.00 0.00 85 1012.9
20260901161558 15 27 0.0 4.8 0.00 0.00 0.00 86 1012.7
20260901154552 14 82 0.0 1.6 0.00 0.00 0.00 87 1012.8
20260901153051 14 0 0.0 4.8 0.00 0.00 0.00 88 1012.9
20260901151554 13 95 1.6 4.8 0.00 0.00 0.00 88 1012.9
20260901150107 13 96 1.6 4.8 0.00 0.00 0.00 88 1012.8
20260901144550 13 188 0.0 3.2 0.00 0.00 0.00 88 1012.7
20260901143059 13 0 0.0 0.0 0.00 0.00 0.00 89 1012.6
20260901141554 13 0 0.0 0.0 0.00 0.00 0.00 89 1012.4
20260901140058 13 0 0.0 0.0 0.00 0.00 0.00 89 1012.3
20260901134553 12 0 0.0 0.0 0.00 0.00 0.00 90 1012.3
20260901133048 12 0 0.0 0.0 0.00 0.00 0.00 90 1012.2
20260901131552 12 0 0.0 0.0 0.00 0.00 0.00 90 1012.1
20260901130054 12 0 0.0 0.0 0.00 0.00 0.00 90 1012.1
20260901124550 12 0 0.0 0.0 0.00 0.00 0.00 91 1012.2
20260901123057 12 0 0.0 1.6 0.00 0.00 0.00 91 1012.2
20260901121604 12 0 0.0 0.0 0.00 0.00 0.00 91 1012.1
20260901120056 12 0 0.0 0.0 0.00 0.00 0.00 91 1011.9
20260901114547 11 0 0.0 0.0 0.00 0.00 0.00 91 1012.0
20260901113100 11 188 0.0 3.2 0.00 0.00 0.00 91 1012.0
20260901111550 11 0 0.0 0.0 0.00 0.00 0.00 91 1011.8
20260901110105 11 0 0.0 1.6 0.00 0.00 0.00 88 1011.8
20260901104559 12 188 0.0 4.8 0.00 0.00 0.00 89 1011.6
20260901103053 12 171 0.0 6.4 0.00 0.00 0.00 89 1011.5
20260901101550 12 174 3.2 4.8 0.00 0.00 0.00 86 1011.6
20260901094553 13 0 1.6 6.4 0.00 0.00 0.00 87 1011.3
20260901093054 13 0 0.0 3.2 0.00 0.00 0.00 87 1011.2
20260901091550 13 0 0.0 0.0 0.00 0.00 0.00 86 1011.2
20260901090100 13 140 0.0 3.2 0.00 0.00 0.00 86 1011.3
20260901084559 13 0 0.0 3.2 0.00 0.00 0.00 87 1011.3
20260901083050 13 0 0.0 3.2 0.00 0.00 0.00 86 1011.3
20260901081552 13 0 0.0 0.0 0.00 0.00 0.00 85 1011.1
20260901080059 13 0 0.0 0.0 0.00 0.00 0.00 85 1011.0
20260901074558 13 140 1.6 3.2 0.00 0.00 0.00 84 1010.9
20260901073052 14 0 0.0 3.2 0.00 0.00 0.00 82 1010.7
20260901071550 14 140 1.6 4.8 0.00 0.00 0.00 82 1010.5
20260901070059 15 28 0.0 1.6 0.00 0.00 0.00 79 1010.3
20260901064555 16 46 0.0 4.8 0.00 0.00 0.00 79 1010.2
20260901063110 16 0 0.0 3.2 0.00 0.00 0.00 77 1010.0
20260901061549 16 5 0.0 6.4 0.00 0.00 0.00 76 1009.8
20260901060057 17 5 1.6 8.0 0.00 0.00 0.00 74 1009.9
20260901054551 17 348 3.2 9.7 0.00 0.00 0.00 72 1009.8
20260901053101 18 300 4.8 16.1 0.00 0.00 0.00 71 1009.9
20260901051611 18 305 4.8 19.3 0.00 0.00 0.00 70 1009.6
20260901050050 18 314 1.6 14.5 0.00 0.00 0.00 68 1009.7
20260901044552 18 329 4.8 14.5 0.00 0.00 0.00 68 1009.7
20260901043058 18 0 0.0 8.0 0.00 0.00 0.00 69 1009.6
20260901041552 19 314 1.6 4.8 0.00 0.00 0.00 68 1009.4
20260901040106 20 9 0.0 4.8 0.00 0.00 0.00 65 1009.1
20260901034603 20 210 1.6 4.8 0.00 0.00 0.00 63 1008.9
20260901033114 21 296 1.6 4.8 0.00 0.00 0.00 62 1008.3
20260901031557 21 310 1.6 8.0 0.00 0.00 0.00 60 1008.5
20260901030055 22 285 1.6 9.7 0.00 0.00 0.00 58 1008.6
20260901024610 22 302 6.4 17.7 0.00 0.00 0.00 56 1008.6
20260901023057 23 272 6.4 14.5 0.00 0.00 0.00 54 1008.3